Regional Weather Roundup
Issued by NWS Grand Forks, ND

Home | Current Version | Previous Version | Graphics & Text | Print | Product List | Glossary On
Versions: 1 2 3 4 5 6 7 8 9 10 11 12 13 14 15 16 17 18 19 20 21 22 23 24 25 26 27 28 29 30 31 32 33 34 35 36 37 38 39 40 41 42 43 44 45 46 47 48 49 50
000
ASUS43 KFGF 280110
RWRFGF
PRAIRIE TO PINES  WEATHER ROUNDUP
NATIONAL WEATHER SERVICE EASTERN NORTH DAKOTA/GRAND FORKS ND
800 PM CDT WED AUG 27 2014

 **SATELLITE DATA USED TO AUGMENT SKY COVER AT AUTOMATED STATIONS**
 *****  WEATHER ACROSS EASTERN NORTH DAKOTA  *****

CITY           SKY/WX    TMP DP  RH WIND       PRES   REMARKS
GRAND FORKS    CLEAR     70  59  68 SE6       30.06F
GRAND FRKS AFB CLEAR     68  61  77 S7        30.07F
GRAND FRKS NWS   N/A     68 N/A N/A S3          N/A
DEVILS LAKE    CLEAR     70  57  64 S9        30.03F
FARGO          CLEAR     69  59  70 SE6       30.07F
WAHPETON ARPT  PTCLDY    68  59  73 SE5       30.09S
$$

 ***** WEATHER ACROSS CENTRAL AND WESTERN NORTH DAKOTA  *****

CITY           SKY/WX    TMP DP  RH WIND       PRES   REMARKS
BISMARCK       CLEAR     70  61  73 S8        30.04S
MINOT          CLEAR     73  56  54 S9        29.99F
JAMESTOWN      PTCLDY    68  61  78 SE6       30.05F
MINOT AFB      CLEAR     72  59  63 S7        29.98F
GARRISON         N/A     71  59  65 S7        30.00F
WILLISTON      CLEAR     80  53  39 SE8       29.95F
DICKINSON      PTCLDY    70  57  63 SE8       30.01F
HETTINGER      CLOUDY    69  61  75 SE7       30.05F
$$

 *****  OTHER AIRPORT OBSERVATIONS IN OUR AREA  *****

CITY           SKY/WX    TMP DP  RH WIND       PRES   REMARKS
WALHALLA         N/A     68  57  68 SE7       30.04F
GRAFTON AIRPOR FAIR      68  57  68 SE7       30.05F
VALLEY CITY AR FAIR      68  64  88 SE7       30.07F
CANDO          FAIR      66  59  77 SE7       30.03F
CAVALIER APRT  FAIR      68  55  64 S6        30.05F
GWINNER        PTCLDY    70  61  73 SE7       30.08S
ROLLA          FAIR      66  57  72 S7        30.04F
 ***** THE ABOVE OBSERVATIONS ARE NON NWS ARE NOT QUALITY
       CONTROLLED AND MAY MIS-REPORT RAIN FOR SNOW...
$$

  *****  WEATHER ACROSS NORTHERN MINNESOTA  *****

CITY           SKY/WX    TMP DP  RH WIND       PRES   REMARKS
FLAG ISLAND    CLEAR     66  52  59 S3        30.09S
WARROAD        CLEAR     63  55  77 SE5       30.11R
ROSEAU         CLEAR     66  54  63 S3        30.10S
HALLOCK        CLEAR     66  55  68 S6        30.06F
THF RVR FALLS  CLEAR     66  54  63 CALM      30.10S
BAUDETTE       CLEAR     61  54  77 CALM      30.10F
WASKISH        CLEAR     63  55  77 CALM      30.11F
CROOKSTON      CLEAR     68  59  73 S3        30.08F
$$
  *****  WEATHER ACROSS CENTRAL AND WEST MINNESOTA  *****

CITY           SKY/WX    TMP DP  RH WIND       PRES   REMARKS
FOSSTON        CLEAR     66  55  68 CALM      30.11F
BEMIDJI        CLEAR     68  52  58 CALM      30.12S
PARK RAPIDS    CLEAR     66  57  72 CALM      30.12F
ELBOW LAKE     FAIR      69  60  72 SE5       30.10S
WADENA         CLOUDY    66  59  77 CALM      30.12S
DETROIT LAKES  CLOUDY    68  59  73 SE5       30.13S
MOORHEAD       CLEAR     72  63  73 CALM      30.09S
FERGUS FALLS   CLEAR     70  55  60 SE3       30.09S
MORRIS MN      MOCLDY    70  61  73 SE3       30.09S
STAPLES        CLOUDY    66  57  72 CALM      30.13S
$$
  *****  WEATHER ELSEWHERE ACROSS MINNESOTA  *****

CITY           SKY/WX    TMP DP  RH WIND       PRES   REMARKS
DULUTH         PTCLDY    63  52  67 E3        30.13F
INTRNTL FALLS  CLEAR     60  54  80 CALM      30.11F
ELY            CLEAR     61  52  72 CALM      30.13S
CLOQUET        CLEAR     63  55  77 CALM      30.14S
WHEATON        MOCLDY    66  61  82 SE5       30.11R
BRAINERD       CLEAR     63  59  87 CALM      30.13F
HIBBING        CLEAR     62  53  72 CALM      30.13F
ALEXANDRIA     CLEAR     68  59  73 E5        30.13S
SAINT CLOUD    CLEAR     70  59  68 E3        30.12S
MINNEAPOLIS    PTCLDY    73  57  57 E9        30.11S
$$

  *****  WEATHER ACROSS SOUTH DAKOTA  *****

CITY           SKY/WX    TMP DP  RH WIND       PRES   REMARKS
SIOUX FALLS    MOCLDY    70  66  87 E8        30.07F
BROOKINGS      NOT AVBL
WATERTOWN      MOCLDY    70  61  73 SE5       30.08S
HURON          MOCLDY    72  64  76 SE7       30.04F
SISSETON         N/A     68  61  78 SE5       30.07F
ABERDEEN       MOCLDY    69  62  78 E6        30.05F
MITCHELL       CLOUDY    71  67  87 E7        30.04F
PIERRE         CLOUDY    72  66  81 E8        29.99F
MOBRIDGE       MOCLDY    70  64  81 E6        30.00F
RAPID CITY     CLOUDY    67  62  84 SE10      30.06S
$$

  *****  SOME WEATHER IN NEARBY STATES *****

CITY           SKY/WX    TMP DP  RH WIND       PRES   REMARKS
GLASGOW MT     CLEAR     82  52  35 W6        29.91S
GREAT FALLS MT SUNNY     82  41  23 W6        30.01S
CHEYENNE WY    CLOUDY    61  51  70 N9        30.17F
SCOTTSBLUFF NE PTCLDY    68  61  78 W6        30.08R
OMAHA NE       CLOUDY    73  69  87 E6        30.04F
DES MOINES IA  CLOUDY    73  68  84 CALM      30.08R
DAVENPORT IA   CLEAR     69  61  75 E6        30.10R
CHICAGO IL     MOCLDY    70  59  68 NE9       30.10S
EAU CLAIRE WI  CLEAR     67  57  70 NE5       30.12F
LA CROSSE WI   PTCLDY    72  60  66 NE3       30.10F
$$

  *****  SOME NATIONAL WEATHER *****

CITY           SKY/WX    TMP DP  RH WIND       PRES   REMARKS
LA GUARDIA NY  PTCLDY    80  65  59 S12       29.88R
RALEIGH NC     PTCLDY    70  61  73 CALM      29.99R
ATLANTA GA     PTCLDY    80  59  48 SW3       30.03S
NEW ORLEANS LA MOCLDY    84  75  74 SE6       29.98S HX  92
OKLAHOMA CITY  PTCLDY    88  64  44 SE12      29.98S
ALBUQUERQUE NM PTCLDY    79  48  33 NW3       30.19F
SALT LAKE CITY PTSUNNY   75  46  35 CALM      30.19S
LOS ANGELES CA SUNNY     78  60  53 W16       29.98S
BOISE ID       SUNNY     88  37  16 N6        30.04F
SEATTLE WA     MOSUNNY   83  56  39 CALM      30.01F
$$

*** WEATHER ACROSS MANITOBA...SASKATCHEWAN AND ONTARIO ***
                ***ONTARIO***

CITY           SKY/WX    TMP DP  RH WIND       PRES   REMARKS
GERALDTON      MOCLDY    54  48  82 CALM      30.13S
THUNDER BAY    PTCLDY    57  52  82 CALM      30.13S
SIOUX LOOKOUT  PTCLDY    55  50  82 SW3       30.10F
TORONTO        PTCLDY    64  52  63 NW16G23   30.06R
BIG TROUT LK   NOT AVBL
PICKLE LAKE    PTCLDY    61  46  59 S6        30.07S
DRYDEN         CLEAR     64  50  59 SW3       30.11S
KENORA         CLEAR     64  52  63 S7        30.11F
$$
                *** MANITOBA***

CITY           SKY/WX    TMP DP  RH WIND       PRES   REMARKS
BRANDON        CLEAR     68  55  64 S7        30.01F
DAUPHIN        CLEAR     70  57  64 SW5       29.94S
ISLAND LAKE    MOCLDY    70  54  56 S7        29.88S
PILOT MOUND      N/A     64  55  72 S6          N/A
THE PAS        MOCLDY    72  61  68 N7        29.77S
THOMPSON       MOCLDY    73  61  64 S8        29.70S
WINNIPEG       CLEAR     68  52  56 S10       30.04S
LYNN LAKE      MOCLDY    72  54  53 MISG      29.66R
CHURCHILL      MOCLDY    63  54  72 S9        29.64F
GILLAM         MOCLDY    68  57  68 S9        29.72F
$$
                ***SASKATCHEWAN***

CITY           SKY/WX    TMP DP  RH WIND       PRES   REMARKS
ESTEVAN        PTCLDY    73  59  60 SE7       29.94F
KINDERSLEY     MOSUNNY   79  54  41 N8        29.86R
LLOYDMINSTER   MOSUNNY   72  57  60 N3        29.86F
PRINCE ALBERT  MOCLDY    70  59  68 NE5       29.82F
REGINA         CLEAR     77  64  65 S5        29.87S
YORKTON        CLEAR     73  57  56 S9        29.89F
N. BATTLEFORD  MOCLDY    75  59  57 NW7       29.86R
LA RONGE       MOCLDY    66  63  88 S5        29.75F
SASKATOON      PTCLDY    73  59  60 NE15      29.82R
SWIFT CURRENT  CLEAR     81  48  32 W9        29.86S
$$
NOTE: THESE ARE AUTOMATED STATIONS WITH LIMITED QUALITY CONTROL
      "FAIR" INDICATES FEW OR NO CLOUDS BELOW 12,000 FEET WITH NO
      SIGNIFICANT WEATHER AND/OR OBSTRUCTIONS TO VISIBILITY.
      SKY/WX - SKY CONDITION AND SIGNIFICANT WEATHER.
      TMP - AIR TEMPERATURE.    DP   - DEWPOINT TEMPERATURE.
      RH  - RELATIVE HUMIDITY.  PRES - PRESSURE.
      HX  - HEAT INDEX.         WCI  - WIND CHILL INDEX.
$


USA.gov is the U.S. government's official web portal to all federal, state and local government web resources and services.